Mount Ida, AR

7:54 AM CDT on June 25, 2017 (GMT -0500)
Mount Ida

Weather History for KMWT - February, 2014

Change the Weather History Date:

Friday, February 14, 2014

  Actual Average (KHOT) Record (KHOT)
Temperature  
Mean Temperature 45 °F -  
Max Temperature 62 °F 59 °F 79 °F (1991)
Min Temperature 28 °F 35 °F 20 °F (1960)
Degree Days  
Heating Degree Days 20    
Moisture  
Dew Point 30 °F    
Average Humidity 60    
Maximum Humidity 92    
Minimum Humidity 25    
Precipitation  
Precipitation 0.00 in - - ()
Sea Level Pressure  
Sea Level Pressure 29.85 in    
Wind  
Wind Speed 3 mph (NNW)    
Max Wind Speed 15 mph    
Max Gust Speed 33 mph    
Visibility 10 miles    
Events      
Averages and records for this station are not official NWS values.
T = Trace of Precipitation, MM = Missing Value Source: NWS Daily Summary

Daily Weather History Graph

Daily Weather History Graph

Search for Another Location

Airport or City:

Trip Planner

Search our weather history database for the weather conditions in past years. The results will help you decide how hot, cold, wet, or windy it might be!

Date:

Astronomy

Feb. 14, 2014 Rise Set
Actual Time 7:00 AM CST 5:56 PM CST
Civil Twilight 6:34 AM CST 6:22 PM CST
Nautical Twilight 6:05 AM CST 6:52 PM CST
Astronomical Twilight 5:36 AM CST 7:21 PM CST
Moon 5:58 PM CST (2/14) 6:29 AM CST (2/14)
Length of Visible Light 11h 47m
Length of Day
10h 56m
Full, 100% of the Moon is Illuminated
Feb 14
Full
Feb 14
Full
Feb 22
Last Quarter
Mar 1
New
Mar 8
First Quarter

Hourly Weather History & Observations

Time (CST) Temp. Windchill Dew Point Humidity Pressure Visibility Wind Dir Wind Speed Gust Speed Precip Events Conditions
12:53 AM 30.9 °F - 26.1 °F 82% 29.84 in 10.0 mi Calm Calm - N/A   Clear
1:53 AM 30.0 °F - 26.1 °F 85% 29.84 in 10.0 mi Calm Calm - N/A   Clear
2:53 AM 30.9 °F - 27.0 °F 85% 29.83 in 10.0 mi Calm Calm - N/A   Clear
3:53 AM 28.9 °F - 27.0 °F 92% 29.79 in 10.0 mi Calm Calm - N/A   Clear
4:53 AM 28.9 °F - 26.1 °F 89% 29.79 in 10.0 mi Calm Calm - N/A   Clear
5:53 AM 32.0 °F - 28.0 °F 85% 29.77 in 10.0 mi Calm Calm - N/A   Clear
6:53 AM 34.0 °F - 30.0 °F 85% 29.74 in 10.0 mi Calm Calm - N/A   Partly Cloudy
7:53 AM 37.9 °F 34.4 °F 33.1 °F 83% 29.72 in 10.0 mi NNE 4.6 mph - N/A   Mostly Cloudy
8:53 AM 44.1 °F - 36.0 °F 73% 29.72 in 10.0 mi Calm Calm - N/A   Scattered Clouds
9:53 AM 48.9 °F - 37.9 °F 66% 29.77 in 10.0 mi Calm Calm - N/A   Mostly Cloudy
10:53 AM 52.0 °F - 37.9 °F 59% 29.76 in 10.0 mi Variable 3.5 mph - N/A   Partly Cloudy
11:53 AM 54.0 °F - 39.0 °F 57% 29.75 in 10.0 mi Variable 3.5 mph - N/A   Partly Cloudy
12:53 PM 55.9 °F - 39.0 °F 53% 29.76 in 10.0 mi Variable 6.9 mph - N/A   Partly Cloudy
1:53 PM 62.1 °F - 35.1 °F 37% 29.76 in 10.0 mi NNW 11.5 mph 26.5 mph N/A   Clear
2:53 PM 62.1 °F - 28.9 °F 29% 29.80 in 10.0 mi NNW 15.0 mph 26.5 mph N/A   Clear
3:53 PM 61.0 °F - 25.0 °F 25% 29.84 in 10.0 mi NW 15.0 mph 33.4 mph N/A   Clear
4:53 PM 59.0 °F - 25.0 °F 27% 29.88 in 10.0 mi NW 12.7 mph 23.0 mph N/A   Clear
5:53 PM 55.0 °F - 25.0 °F 31% 29.92 in 10.0 mi NNW 9.2 mph 23.0 mph N/A   Clear
6:53 PM 52.0 °F - 24.1 °F 34% 29.96 in 10.0 mi NNW 5.8 mph - N/A   Clear
7:53 PM 50.0 °F - 26.1 °F 39% 30.00 in 10.0 mi NNW 8.1 mph - N/A   Clear
8:53 PM 48.0 °F - 28.0 °F 46% 30.03 in 10.0 mi NNW 6.9 mph - N/A   Clear
9:53 PM 45.0 °F 41.2 °F 28.0 °F 52% 30.04 in 10.0 mi NNW 6.9 mph - N/A   Clear
10:53 PM 42.1 °F - 27.0 °F 55% 30.05 in 10.0 mi Calm Calm - N/A   Clear
11:53 PM 37.0 °F - 27.0 °F 67% 30.08 in 10.0 mi Calm Calm - N/A   Clear